Weather History for New Haven, CT

Change the Weather History Date:

Tuesday, February 4, 2014

  Actual Average Record
Temperature  
Mean Temperature 27 °F -  
Max Temperature 35 °F 37 °F 35 °F (2014)
Min Temperature 19 °F 23 °F 19 °F (2014)
Degree Days  
Heating Degree Days 38    
Moisture  
Dew Point 19 °F    
Average Humidity 80    
Maximum Humidity 93    
Minimum Humidity 52    
Precipitation  
Precipitation 0.00 in - - ()
Sea Level Pressure  
Sea Level Pressure 30.37 in    
Wind  
Wind Speed 2 mph (North)    
Max Wind Speed 10 mph    
Max Gust Speed -    
Visibility 8 miles    
Events      
Averages and records for this station are not official NWS values.
T = Trace of Precipitation, MM = Missing Value Source: NWS Daily Summary

Daily Weather History Graph

Daily Weather History Graph

Search for Another Location

Airport:

Trip Planner

Search our weather history database for the weather conditions in past years. The results will help you decide how hot, cold, wet, or windy it might be!

Date:

Astronomy

Feb. 04, 2014 Rise Set
Actual Time 6:59 AM EST 5:11 PM EST
Civil Twilight 6:30 AM EST 5:40 PM EST
Nautical Twilight 5:57 AM EST 6:13 PM EST
Astronomical Twilight 5:25 AM EST 6:46 PM EST
Moon 9:32 AM EST (2/4) 11:07 PM EST (2/4)
Length of Visible Light 11h 10m
Length of Day
10h 12m
Waxing Crescent, 29% of the Moon is Illuminated
Feb 4
Waxing Crescent
Feb 6
First Quarter
Feb 14
Full
Feb 22
Last Quarter
Mar 1
New

Hourly Weather History & Observations

Time (EST) Temp. Windchill Dew Point Humidity Pressure Visibility Wind Dir Wind Speed Gust Speed Precip Events Conditions
12:05 AM 21.2 °F - 19.4 °F 93% 30.30 in 9.0 mi Calm Calm - N/A   Partly Cloudy
12:53 AM 21.0 °F - 18.0 °F 88% 30.30 in 4.0 mi Calm Calm - N/A   Scattered Clouds
1:18 AM 19.4 °F - 17.6 °F 93% 30.30 in 1.8 mi Calm Calm - N/A   Clear
1:27 AM 19.4 °F - 17.6 °F 93% 30.31 in 0.8 mi Calm Calm - N/A   Clear
1:31 AM 21.2 °F - 17.6 °F 86% 30.31 in 2.0 mi Calm Calm - N/A   Clear
1:38 AM 24.8 °F 20.5 °F 19.4 °F 80% 30.31 in 9.0 mi NW 3.5 mph - N/A   Clear
1:53 AM 19.0 °F - 17.1 °F 92% 30.32 in 8.0 mi Calm Calm - N/A   Clear
2:53 AM 24.1 °F 17.0 °F 19.9 °F 84% 30.35 in 10.0 mi North 5.8 mph - N/A   Clear
3:53 AM 19.9 °F - 17.1 °F 89% 30.35 in 9.0 mi Calm Calm - N/A   Clear
4:53 AM 19.0 °F 13.9 °F 16.0 °F 88% 30.37 in 10.0 mi North 3.5 mph - N/A   Clear
5:53 AM 21.0 °F 16.2 °F 17.1 °F 85% 30.39 in 10.0 mi North 3.5 mph - N/A   Clear
6:53 AM 19.9 °F - 16.0 °F 85% 30.41 in 10.0 mi Calm Calm - N/A   Clear
7:53 AM 19.9 °F 11.1 °F 17.1 °F 89% 30.42 in 10.0 mi North 6.9 mph - N/A   Clear
8:53 AM 24.1 °F 13.7 °F 18.0 °F 77% 30.45 in 10.0 mi North 10.4 mph - N/A   Clear
9:53 AM 27.0 °F 18.0 °F 19.9 °F 75% 30.46 in 10.0 mi North 9.2 mph - N/A   Scattered Clouds
10:53 AM 30.0 °F 21.1 °F 19.9 °F 66% 30.46 in 10.0 mi North 10.4 mph - N/A   Clear
11:53 AM 30.9 °F 24.3 °F 21.0 °F 67% 30.44 in 10.0 mi North 6.9 mph - N/A   Clear
12:53 PM 33.1 °F - 19.9 °F 59% 30.40 in 10.0 mi Calm Calm - N/A   Clear
1:53 PM 35.1 °F - 19.0 °F 52% 30.40 in 10.0 mi Calm Calm - N/A   Clear
2:53 PM 32.0 °F 26.4 °F 21.9 °F 66% 30.40 in 10.0 mi South 5.8 mph - 0.00 in   Clear
3:53 PM 32.0 °F 24.8 °F 21.0 °F 64% 30.38 in 10.0 mi South 8.1 mph - N/A   Mostly Cloudy
4:53 PM 28.9 °F 25.2 °F 19.9 °F 69% 30.38 in 10.0 mi South 3.5 mph - N/A   Scattered Clouds
5:53 PM 28.0 °F - 21.0 °F 75% 30.41 in 10.0 mi Calm Calm - N/A   Mostly Cloudy
6:53 PM 26.1 °F - 21.0 °F 81% 30.41 in 10.0 mi Calm Calm - N/A   Clear
7:53 PM 25.0 °F - 21.0 °F 85% 30.38 in 9.0 mi Calm Calm - N/A   Clear
8:53 PM 24.1 °F - 21.0 °F 88% 30.40 in 8.0 mi Calm Calm - N/A   Clear
9:53 PM 26.1 °F - 21.9 °F 84% 30.36 in 8.0 mi Calm Calm - N/A   Clear
10:53 PM 26.1 °F 20.5 °F 21.9 °F 84% 30.32 in 8.0 mi NE 4.6 mph - N/A   Partly Cloudy
11:53 PM 28.0 °F 22.8 °F 24.1 °F 85% 30.30 in 9.0 mi North 4.6 mph - N/A   Overcast